• In Austria
  • List of Countries
  • For 7 days
  • Water Temperature
  • Satellite Maps
  • Weather Map
  • News
  • Weather Widgets
  • user-avatar
    Login

    Hourly Weather Batina

    Today, 18 October, Wednesday

    Time Temperature Precipitation Wind Pressure Humidity
    00:00 +15°C° 0 mm 1 mps 675 mmHg 53%
    01:00 +15°C° 0 mm 1 mps 674 mmHg 54%
    02:00 +15°C° 0 mm 1 mps 674 mmHg 55%
    03:00 +14°C° 0 mm 1 mps 673 mmHg 56%
    04:00 +14°C° 0 mm 1 mps 673 mmHg 57%
    05:00 +14°C° 0 mm 1 mps 673 mmHg 58%
    06:00 +13°C° 0 mm 1 mps 673 mmHg 58%
    07:00 +15°C° 0 mm 1 mps 673 mmHg 52%
    08:00 +17°C° 0 mm 2 mps 674 mmHg 46%
    09:00 +18°C° 0 mm 2 mps 674 mmHg 40%
    10:00 +19°C° 0 mm 2 mps 674 mmHg 38%
    11:00 +20°C° 0 mm 3 mps 674 mmHg 35%
    12:00 +21°C° 0 mm 3 mps 674 mmHg 33%
    13:00 +21°C° 0 mm 3 mps 673 mmHg 33%
    14:00 +21°C° 0 mm 3 mps 673 mmHg 32%
    15:00 +21°C° 0 mm 3 mps 672 mmHg 32%
    16:00 +20°C° 0 mm 3 mps 672 mmHg 34%
    17:00 +19°C° 0 mm 3 mps 672 mmHg 36%
    18:00 +18°C° 0 mm 2 mps 672 mmHg 38%
    19:00 +18°C° 0 mm 2 mps 672 mmHg 39%
    20:00 +18°C° 0 mm 2 mps 672 mmHg 40%
    21:00 +17°C° 0 mm 2 mps 672 mmHg 42%
    22:00 +17°C° 0 mm 2 mps 672 mmHg 42%
    23:00 +16°C° 0 mm 2 mps 671 mmHg 42%

    Tomorrow, 19 October, Thursday

    Time Temperature Precipitation Wind Pressure Humidity
    00:00 +16°C° 0 mm 2 mps 671 mmHg 43%
    01:00 +16°C° 0 mm 2 mps 671 mmHg 43%
    02:00 +15°C° 0 mm 2 mps 671 mmHg 43%
    03:00 +15°C° 0 mm 2 mps 670 mmHg 44%
    04:00 +15°C° 0 mm 2 mps 670 mmHg 44%
    05:00 +15°C° 0 mm 2 mps 670 mmHg 44%
    06:00 +15°C° 0 mm 2 mps 670 mmHg 44%
    07:00 +16°C° 0 mm 3 mps 671 mmHg 40%
    08:00 +18°C° 0 mm 4 mps 671 mmHg 36%
    09:00 +19°C° 0 mm 5 mps 672 mmHg 32%
    10:00 +20°C° 0 mm 5 mps 671 mmHg 31%
    11:00 +21°C° 0 mm 6 mps 671 mmHg 31%
    12:00 +21°C° 0 mm 7 mps 671 mmHg 30%
    13:00 +21°C° 0 mm 7 mps 671 mmHg 31%
    14:00 +21°C° 0 mm 7 mps 670 mmHg 31%
    15:00 +21°C° 0 mm 7 mps 670 mmHg 32%
    16:00 +20°C° 0.1 mm 6 mps 670 mmHg 37%
    17:00 +19°C° 0.1 mm 5 mps 670 mmHg 41%
    18:00 +18°C° 0.1 mm 4 mps 670 mmHg 46%
    19:00 +17°C° 0.9 mm 4 mps 670 mmHg 54%
    20:00 +15°C° 0.9 mm 4 mps 670 mmHg 61%
    21:00 +14°C° 0.9 mm 4 mps 670 mmHg 68%
    22:00 +14°C° 0.9 mm 4 mps 670 mmHg 69%
    23:00 +14°C° 0.9 mm 4 mps 670 mmHg 70%

    Day after tomorrow, 20 October, Friday

    Time Temperature Precipitation Wind Pressure Humidity
    00:00 +13°C° 0.9 mm 3 mps 669 mmHg 71%
    01:00 +13°C° 0.3 mm 3 mps 669 mmHg 73%
    02:00 +14°C° 0.3 mm 2 mps 669 mmHg 74%
    03:00 +13°C° 0.3 mm 2 mps 669 mmHg 76%
    04:00 +13°C° 0 mm 2 mps 668 mmHg 77%
    05:00 +13°C° 0 mm 2 mps 668 mmHg 79%
    06:00 +12°C° 0 mm 2 mps 668 mmHg 80%
    07:00 +13°C° 0 mm 2 mps 669 mmHg 70%
    08:00 +13°C° 0 mm 3 mps 670 mmHg 60%
    09:00 +14°C° 0 mm 3 mps 670 mmHg 50%
    10:00 +16°C° 0 mm 3 mps 670 mmHg 48%
    11:00 +15°C° 0 mm 4 mps 670 mmHg 46%
    12:00 +17°C° 0 mm 4 mps 670 mmHg 44%
    13:00 +16°C° 0.1 mm 5 mps 670 mmHg 45%
    14:00 +16°C° 0.1 mm 5 mps 670 mmHg 45%
    15:00 +16°C° 0.1 mm 5 mps 670 mmHg 45%
    16:00 +16°C° 0 mm 5 mps 671 mmHg 49%
    17:00 +15°C° 0 mm 4 mps 671 mmHg 53%
    18:00 +14°C° 0 mm 4 mps 671 mmHg 57%
    19:00 +14°C° 0 mm 3 mps 672 mmHg 61%
    20:00 +13°C° 0 mm 3 mps 672 mmHg 65%
    21:00 +14°C° 0 mm 2 mps 672 mmHg 69%
    22:00 +13°C° 0 mm 2 mps 672 mmHg 72%
    23:00 +13°C° 0 mm 2 mps 672 mmHg 75%

    21 October, Saturday

    Time Temperature Precipitation Wind Pressure Humidity
    00:00 +12°C° 0 mm 2 mps 672 mmHg 78%
    01:00 +12°C° 0 mm 2 mps 672 mmHg 79%
    02:00 +12°C° 0 mm 2 mps 672 mmHg 81%
    03:00 +10°C° 0 mm 2 mps 672 mmHg 82%
    04:00 +10°C° 0 mm 2 mps 672 mmHg 83%
    05:00 +10°C° 0 mm 2 mps 672 mmHg 83%
    06:00 +10°C° 0 mm 2 mps 672 mmHg 84%
    07:00 +12°C° 0 mm 2 mps 673 mmHg 77%
    08:00 +14°C° 0 mm 2 mps 674 mmHg 69%
    09:00 +15°C° 0 mm 2 mps 675 mmHg 62%
    10:00 +16°C° 0 mm 2 mps 675 mmHg 57%
    11:00 +17°C° 0 mm 2 mps 675 mmHg 53%
    12:00 +18°C° 0 mm 2 mps 675 mmHg 48%
    13:00 +19°C° 0 mm 2 mps 675 mmHg 47%
    14:00 +19°C° 0 mm 2 mps 675 mmHg 46%
    15:00 +19°C° 0 mm 3 mps 675 mmHg 45%
    16:00 +19°C° 0 mm 2 mps 675 mmHg 49%
    17:00 +18°C° 0 mm 2 mps 675 mmHg 53%
    18:00 +17°C° 0 mm 2 mps 675 mmHg 56%
    19:00 +18°C° 0 mm 1 mps 675 mmHg 60%
    20:00 +16°C° 0 mm 1 mps 675 mmHg 63%
    21:00 +15°C° 0 mm 1 mps 675 mmHg 67%
    22:00 +15°C° 0 mm 1 mps 675 mmHg 69%
    23:00 +13°C° 0 mm 0 mps 675 mmHg 71%

    22 October, Sunday

    Time Temperature Precipitation Wind Pressure Humidity
    00:00 +13°C° 0 mm 0 mps 675 mmHg 73%
    01:00 +13°C° 0 mm 0 mps 674 mmHg 73%
    02:00 +12°C° 0 mm 0 mps 674 mmHg 73%
    03:00 +12°C° 0 mm 0 mps 674 mmHg 74%
    04:00 +12°C° 0 mm 0 mps 674 mmHg 74%
    05:00 +12°C° 0 mm 0 mps 674 mmHg 74%
    06:00 +11°C° 0 mm 0 mps 674 mmHg 74%
    07:00 +14°C° 0 mm 1 mps 674 mmHg 67%
    08:00 +16°C° 0 mm 1 mps 675 mmHg 59%
    09:00 +19°C° 0 mm 1 mps 676 mmHg 52%
    10:00 +19°C° 0 mm 2 mps 676 mmHg 48%
    11:00 +20°C° 0 mm 2 mps 676 mmHg 44%
    12:00 +20°C° 0 mm 2 mps 675 mmHg 40%
    13:00 +21°C° 0 mm 3 mps 675 mmHg 39%
    14:00 +21°C° 0 mm 3 mps 675 mmHg 39%
    15:00 +21°C° 0 mm 3 mps 675 mmHg 38%
    16:00 +20°C° 0 mm 3 mps 674 mmHg 43%
    17:00 +19°C° 0 mm 3 mps 674 mmHg 47%
    18:00 +18°C° 0 mm 2 mps 674 mmHg 51%
    19:00 +18°C° 0 mm 2 mps 674 mmHg 55%
    20:00 +17°C° 0 mm 2 mps 674 mmHg 60%
    21:00 +16°C° 0 mm 1 mps 674 mmHg 64%
    22:00 +16°C° 0 mm 1 mps 674 mmHg 67%
    23:00 +15°C° 0 mm 1 mps 674 mmHg 70%

    23 October, Monday

    Time Temperature Precipitation Wind Pressure Humidity
    00:00 +15°C° 0 mm 1 mps 674 mmHg 73%
    01:00 +14°C° 0 mm 1 mps 673 mmHg 75%
    02:00 +14°C° 0 mm 1 mps 673 mmHg 77%
    03:00 +14°C° 0 mm 1 mps 673 mmHg 79%
    04:00 +13°C° 0 mm 1 mps 673 mmHg 80%
    05:00 +13°C° 0 mm 1 mps 673 mmHg 81%
    06:00 +13°C° 0 mm 1 mps 673 mmHg 82%
    07:00 +14°C° 0 mm 1 mps 673 mmHg 75%
    08:00 +15°C° 0 mm 1 mps 674 mmHg 69%
    09:00 +17°C° 0 mm 2 mps 674 mmHg 62%
    10:00 +18°C° 0 mm 2 mps 674 mmHg 57%
    11:00 +18°C° 0 mm 2 mps 674 mmHg 51%
    12:00 +19°C° 0 mm 3 mps 674 mmHg 46%
    13:00 +20°C° 0 mm 3 mps 674 mmHg 44%
    14:00 +20°C° 0 mm 4 mps 673 mmHg 43%
    15:00 +20°C° 0 mm 4 mps 673 mmHg 41%
    16:00 +19°C° 0 mm 4 mps 673 mmHg 45%
    17:00 +18°C° 0 mm 3 mps 673 mmHg 49%
    18:00 +17°C° 0 mm 3 mps 673 mmHg 53%
    19:00 +16°C° 0 mm 3 mps 673 mmHg 56%
    20:00 +15°C° 0 mm 2 mps 673 mmHg 60%
    21:00 +14°C° 0 mm 2 mps 673 mmHg 64%
    22:00 +14°C° 0 mm 2 mps 673 mmHg 67%
    23:00 +13°C° 0 mm 2 mps 672 mmHg 69%
    Show more